Hourly Weather Dżakarta

Today, 27 September, Sunday

Time Temperature Precipitation Wind Pressure Humidity
00:00 +29°C° 0 mm 1 mps 757 mmHg 72%
01:00 +29°C° 0 mm 1 mps 757 mmHg 72%
02:00 +28°C° 0 mm 1 mps 756 mmHg 73%
03:00 +28°C° 0 mm 1 mps 756 mmHg 73%
04:00 +28°C° 0 mm 2 mps 756 mmHg 74%
05:00 +28°C° 0.1 mm 1 mps 757 mmHg 73%
06:00 +28°C° 0.1 mm 1 mps 757 mmHg 72%
07:00 +29°C° 0 mm 1 mps 758 mmHg 70%
08:00 +31°C° 0 mm 1 mps 758 mmHg 64%
09:00 +32°C° 0 mm 1 mps 758 mmHg 58%
10:00 +33°C° 0 mm 1 mps 758 mmHg 52%
11:00 +35°C° 0.2 mm 2 mps 757 mmHg 51%
12:00 +35°C° 0.2 mm 2 mps 756 mmHg 51%
13:00 +35°C° 0.2 mm 3 mps 756 mmHg 50%
14:00 +35°C° 0.5 mm 3 mps 755 mmHg 53%
15:00 +34°C° 0.5 mm 3 mps 755 mmHg 57%
16:00 +33°C° 0.5 mm 4 mps 755 mmHg 60%
17:00 +31°C° 0.9 mm 3 mps 756 mmHg 63%
18:00 +31°C° 0.9 mm 3 mps 756 mmHg 66%
19:00 +30°C° 0.9 mm 2 mps 757 mmHg 69%
20:00 +29°C° 1.6 mm 2 mps 757 mmHg 73%
21:00 +29°C° 1.6 mm 2 mps 758 mmHg 76%
22:00 +28°C° 1.6 mm 2 mps 758 mmHg 79%
23:00 +28°C° 0.4 mm 1 mps 758 mmHg 80%

Tomorrow, 28 September, Monday

Time Temperature Precipitation Wind Pressure Humidity
00:00 +28°C° 0.4 mm 1 mps 757 mmHg 81%
01:00 +28°C° 0.4 mm 1 mps 757 mmHg 82%
02:00 +28°C° 0 mm 1 mps 756 mmHg 82%
03:00 +27°C° 0 mm 2 mps 756 mmHg 81%
04:00 +27°C° 0 mm 2 mps 756 mmHg 81%
05:00 +28°C° 0 mm 2 mps 756 mmHg 78%
06:00 +28°C° 0 mm 1 mps 757 mmHg 76%
07:00 +29°C° 0 mm 1 mps 757 mmHg 74%
08:00 +30°C° 0 mm 1 mps 757 mmHg 68%
09:00 +31°C° 0 mm 1 mps 757 mmHg 62%
10:00 +32°C° 0 mm 1 mps 758 mmHg 56%
11:00 +34°C° 0 mm 2 mps 757 mmHg 53%
12:00 +35°C° 0 mm 2 mps 756 mmHg 49%
13:00 +37°C° 0 mm 2 mps 756 mmHg 45%
14:00 +36°C° 0.1 mm 3 mps 755 mmHg 49%
15:00 +35°C° 0.1 mm 3 mps 755 mmHg 54%
16:00 +34°C° 0.1 mm 4 mps 755 mmHg 58%
17:00 +33°C° 0.4 mm 3 mps 755 mmHg 62%
18:00 +31°C° 0.4 mm 3 mps 756 mmHg 65%
19:00 +30°C° 0.4 mm 2 mps 756 mmHg 69%
20:00 +30°C° 0.1 mm 1 mps 757 mmHg 69%
21:00 +30°C° 0.1 mm 1 mps 757 mmHg 70%
22:00 +30°C° 0.1 mm 1 mps 757 mmHg 70%
23:00 +29°C° 0 mm 1 mps 757 mmHg 72%

Day after tomorrow, 29 September, Tuesday

Time Temperature Precipitation Wind Pressure Humidity
00:00 +29°C° 0 mm 1 mps 757 mmHg 74%
01:00 +29°C° 0 mm 1 mps 756 mmHg 76%
02:00 +28°C° 0.1 mm 1 mps 756 mmHg 76%
03:00 +28°C° 0.1 mm 1 mps 756 mmHg 77%
04:00 +28°C° 0.1 mm 1 mps 756 mmHg 78%
05:00 +28°C° 0.3 mm 1 mps 756 mmHg 77%
06:00 +29°C° 0.3 mm 2 mps 756 mmHg 75%
07:00 +29°C° 0.3 mm 2 mps 757 mmHg 74%
08:00 +30°C° 0.1 mm 1 mps 757 mmHg 67%
09:00 +32°C° 0.1 mm 1 mps 757 mmHg 60%
10:00 +32°C° 0.1 mm 0 mps 757 mmHg 53%
11:00 +34°C° 0 mm 1 mps 756 mmHg 50%
12:00 +36°C° 0 mm 2 mps 755 mmHg 47%
13:00 +37°C° 0 mm 3 mps 754 mmHg 44%
14:00 +36°C° 0.2 mm 3 mps 754 mmHg 49%
15:00 +35°C° 0.2 mm 4 mps 753 mmHg 55%
16:00 +34°C° 0.2 mm 4 mps 753 mmHg 60%
17:00 +33°C° 0.2 mm 3 mps 754 mmHg 63%
18:00 +31°C° 0.2 mm 3 mps 754 mmHg 67%
19:00 +30°C° 0.2 mm 2 mps 755 mmHg 70%
20:00 +30°C° 0.2 mm 2 mps 755 mmHg 70%
21:00 +30°C° 0.2 mm 2 mps 756 mmHg 71%
22:00 +30°C° 0.2 mm 1 mps 756 mmHg 72%
23:00 +30°C° 0.1 mm 1 mps 756 mmHg 73%

30 September, Wednesday

Time Temperature Precipitation Wind Pressure Humidity
00:00 +29°C° 0.1 mm 1 mps 755 mmHg 74%
01:00 +29°C° 0.1 mm 1 mps 755 mmHg 75%
02:00 +29°C° 0.1 mm 1 mps 755 mmHg 76%
03:00 +28°C° 0.1 mm 1 mps 755 mmHg 77%
04:00 +28°C° 0.1 mm 1 mps 755 mmHg 79%
05:00 +28°C° 0 mm 1 mps 755 mmHg 77%
06:00 +29°C° 0 mm 1 mps 755 mmHg 76%
07:00 +29°C° 0 mm 1 mps 756 mmHg 74%
08:00 +31°C° 0 mm 1 mps 756 mmHg 68%
09:00 +32°C° 0 mm 1 mps 756 mmHg 62%
10:00 +32°C° 0 mm 0 mps 756 mmHg 56%
11:00 +34°C° 0 mm 1 mps 755 mmHg 53%
12:00 +36°C° 0 mm 2 mps 754 mmHg 51%
13:00 +36°C° 0 mm 3 mps 754 mmHg 48%
14:00 +35°C° 0.1 mm 3 mps 753 mmHg 52%
15:00 +35°C° 0.1 mm 3 mps 753 mmHg 56%
16:00 +34°C° 0.1 mm 4 mps 753 mmHg 60%
17:00 +33°C° 0.3 mm 3 mps 753 mmHg 64%
18:00 +31°C° 0.3 mm 2 mps 754 mmHg 68%
19:00 +30°C° 0.3 mm 1 mps 754 mmHg 72%
20:00 +30°C° 0.4 mm 1 mps 755 mmHg 72%
21:00 +30°C° 0.4 mm 1 mps 755 mmHg 72%
22:00 +30°C° 0.4 mm 1 mps 756 mmHg 73%
23:00 +29°C° 0 mm 1 mps 755 mmHg 73%

1 October, Thursday

Time Temperature Precipitation Wind Pressure Humidity
00:00 +29°C° 0 mm 1 mps 755 mmHg 74%
01:00 +29°C° 0 mm 1 mps 755 mmHg 75%
02:00 +29°C° 0 mm 1 mps 754 mmHg 76%
03:00 +29°C° 0 mm 1 mps 754 mmHg 77%
04:00 +28°C° 0 mm 2 mps 754 mmHg 78%
05:00 +29°C° 0.1 mm 1 mps 754 mmHg 77%
06:00 +29°C° 0.1 mm 1 mps 755 mmHg 75%
07:00 +29°C° 0.1 mm 1 mps 755 mmHg 74%
08:00 +31°C° 0 mm 2 mps 755 mmHg 67%
09:00 +32°C° 0 mm 2 mps 756 mmHg 60%
10:00 +35°C° 0 mm 2 mps 756 mmHg 53%
11:00 +35°C° 0 mm 3 mps 755 mmHg 51%
12:00 +36°C° 0 mm 4 mps 754 mmHg 50%
13:00 +36°C° 0 mm 5 mps 754 mmHg 48%
14:00 +36°C° 0 mm 6 mps 753 mmHg 49%
15:00 +36°C° 0 mm 6 mps 753 mmHg 49%
16:00 +35°C° 0 mm 6 mps 753 mmHg 50%
17:00 +34°C° 0.4 mm 6 mps 754 mmHg 55%
18:00 +33°C° 0.4 mm 5 mps 754 mmHg 61%
19:00 +32°C° 0.4 mm 4 mps 755 mmHg 66%
20:00 +30°C° 0.6 mm 4 mps 756 mmHg 69%
21:00 +30°C° 0.6 mm 4 mps 756 mmHg 72%
22:00 +29°C° 0.6 mm 3 mps 756 mmHg 75%
23:00 +29°C° 0.6 mm 3 mps 756 mmHg 76%

2 October, Friday

Time Temperature Precipitation Wind Pressure Humidity
00:00 +29°C° 0.6 mm 3 mps 756 mmHg 77%
01:00 +29°C° 0.6 mm 2 mps 755 mmHg 79%
02:00 +28°C° 0 mm 2 mps 755 mmHg 79%
03:00 +28°C° 0 mm 2 mps 754 mmHg 80%
04:00 +28°C° 0 mm 1 mps 754 mmHg 80%
05:00 +28°C° 0 mm 1 mps 755 mmHg 78%
06:00 +29°C° 0 mm 2 mps 755 mmHg 76%
07:00 +29°C° 0 mm 2 mps 756 mmHg 74%
08:00 +30°C° 0 mm 2 mps 756 mmHg 67%
09:00 +33°C° 0 mm 3 mps 756 mmHg 59%
10:00 +34°C° 0 mm 4 mps 756 mmHg 52%
11:00 +35°C° 0 mm 4 mps 755 mmHg 50%
12:00 +36°C° 0 mm 4 mps 755 mmHg 47%
13:00 +37°C° 0 mm 5 mps 754 mmHg 45%
14:00 +36°C° 0 mm 5 mps 754 mmHg 47%
15:00 +35°C° 0 mm 6 mps 754 mmHg 50%
16:00 +34°C° 0 mm 6 mps 753 mmHg 52%
17:00 +34°C° 0.1 mm 5 mps 754 mmHg 56%
18:00 +33°C° 0.1 mm 4 mps 755 mmHg 61%
19:00 +32°C° 0.1 mm 4 mps 755 mmHg 65%
20:00 +30°C° 0 mm 3 mps 756 mmHg 67%
21:00 +30°C° 0 mm 2 mps 756 mmHg 68%
22:00 +30°C° 0 mm 2 mps 757 mmHg 69%
23:00 +30°C° 0 mm 2 mps 756 mmHg 69%
Show more